Location: Unspecified
(0.0000°N, 0.0000°E)
Time: 11:31:00
(UTC+00:00)

Kosmos-2266 - Visible Passes

Search period start: 05 June 2023 00:00
Search period end: 15 June 2023 00:00
Orbit: 945 x 1018 km, 83.0° (Epoch: 04 June)

Date Brightness Start Highest point End Pass type
(mag) Time Alt. Az. Time Alt. Az. Time Alt. Az.
05 Jun 6.3 18:14:36 10° SSE 18:19:45 28° E 18:24:50 10° NE visible
05 Jun 7.7 20:00:24 10° SW 20:04:56 22° W 20:09:25 10° NW visible
06 Jun 5.4 18:40:47 10° S 18:46:53 66° E 18:52:54 10° NNE visible
07 Jun 6.2 19:08:02 10° SSW 19:14:00 55° W 19:19:55 10° N visible
08 Jun 7.7 19:36:24 10° SW 19:41:07 23° W 19:45:49 10° NW visible
09 Jun 8.9 05:15:46 10° ENE 05:16:43 10° E 05:17:41 10° E visible
09 Jun 5.5 18:17:02 10° S 18:23:04 60° E 18:29:02 10° NNE visible
10 Jun 6.1 18:44:11 10° SSW 18:50:12 59° W 18:56:09 10° N visible
11 Jun 7.7 19:12:25 10° SW 19:17:17 25° W 19:22:10 10° NNW visible
13 Jun 8.1 05:15:02 10° NE 05:20:04 24° E 05:25:07 10° SE visible
13 Jun 6.0 18:20:20 10° SSW 18:26:22 64° W 18:32:22 10° N visible
14 Jun 7.6 18:48:26 10° SW 18:53:29 27° W 18:58:31 10° NNW visible
